Weather History for Spirit of St Louis, MO

Change the Weather History Date:

Wednesday, March 6, 2013

  Actual Average Record
Temperature  
Mean Temperature 30 °F -  
Max Temperature 37 °F 48 °F 82 °F (2009)
Min Temperature 24 °F 27 °F 23 °F (2001)
Degree Days  
Heating Degree Days 34    
Moisture  
Dew Point 21 °F    
Average Humidity 65    
Maximum Humidity 84    
Minimum Humidity 52    
Precipitation  
Precipitation 0.00 in - - ()
Sea Level Pressure  
Sea Level Pressure 30.33 in    
Wind  
Wind Speed 13 mph (NW)    
Max Wind Speed 20 mph    
Max Gust Speed 30 mph    
Visibility 10 miles    
Events      
Averages and records for this station are not official NWS values.
T = Trace of Precipitation, MM = Missing Value Source: NWS Daily Summary

Daily Weather History Graph

Daily Weather History Graph

Search for Another Location

Airport:

Trip Planner

Search our weather history database for the weather conditions in past years. The results will help you decide how hot, cold, wet, or windy it might be!

Date:

Astronomy

Mar. 06, 2013 Rise Set
Actual Time 6:27 AM CST 6:00 PM CST
Civil Twilight 6:00 AM CST 6:27 PM CST
Nautical Twilight 5:29 AM CST 6:58 PM CST
Astronomical Twilight 4:59 AM CST 7:29 PM CST
Moon 2:33 AM CST (3/6) 12:45 PM CST (3/6)
Length of Visible Light 12h 26m
Length of Day
11h 33m
Waning Crescent, 29% of the Moon is Illuminated
Mar 6
Waning Crescent
Mar 11
New
Mar 19
First Quarter
Mar 27
Full
Apr 2
Last Quarter

Hourly Weather History & Observations

Time (CST) Temp. Windchill Dew Point Humidity Pressure Visibility Wind Dir Wind Speed Gust Speed Precip Events Conditions
12:15 AM 33.8 °F 23.9 °F 21.2 °F 60% 30.15 in 10.0 mi NW 15.0 mph 27.6 mph N/A   Overcast
12:54 AM 32.0 °F 20.5 °F 21.9 °F 66% 30.19 in 10.0 mi NW 18.4 mph 25.3 mph N/A   Overcast
1:33 AM 32.0 °F 21.2 °F 21.2 °F 64% 30.19 in 10.0 mi NW 16.1 mph 27.6 mph N/A   Overcast
1:54 AM 32.0 °F 21.6 °F 21.0 °F 64% 30.22 in 10.0 mi WNW 15.0 mph 21.9 mph N/A   Overcast
2:54 AM 30.9 °F 20.7 °F 21.0 °F 67% 30.22 in 10.0 mi NW 13.8 mph 29.9 mph N/A   Overcast
3:54 AM 30.9 °F 19.1 °F 21.0 °F 67% 30.25 in 10.0 mi WNW 18.4 mph 24.2 mph N/A   Overcast
4:17 AM 30.2 °F 20.2 °F 21.2 °F 69% 30.24 in 10.0 mi NW 12.7 mph 20.7 mph N/A   Overcast
4:54 AM 30.9 °F 19.8 °F 21.0 °F 67% 30.29 in 10.0 mi NW 16.1 mph 21.9 mph N/A   Overcast
5:18 AM 30.2 °F 19.3 °F 21.2 °F 69% 30.27 in 10.0 mi NW 15.0 mph - N/A   Overcast
5:54 AM 30.9 °F 20.7 °F 21.0 °F 67% 30.32 in 10.0 mi NW 13.8 mph 20.7 mph N/A   Overcast
6:11 AM 30.2 °F 21.9 °F 21.2 °F 69% 30.29 in 10.0 mi NW 9.2 mph - N/A   Overcast
6:54 AM 30.9 °F 19.8 °F 21.0 °F 67% 30.34 in 10.0 mi NW 16.1 mph - N/A   Overcast
7:54 AM 30.9 °F 19.1 °F 19.9 °F 64% 30.37 in 10.0 mi NW 18.4 mph 23.0 mph N/A   Overcast
8:54 AM 32.0 °F 20.1 °F 19.9 °F 61% 30.38 in 10.0 mi NNW 19.6 mph 24.2 mph N/A   Mostly Cloudy
9:54 AM 35.1 °F 26.4 °F 21.9 °F 59% 30.39 in 10.0 mi NW 12.7 mph - N/A   Mostly Cloudy
10:54 AM 34.0 °F 24.2 °F 21.0 °F 59% 30.40 in 10.0 mi NNW 15.0 mph - N/A   Overcast
11:54 AM 35.1 °F 26.4 °F 21.9 °F 59% 30.39 in 10.0 mi NW 12.7 mph - N/A   Overcast
11:56 AM 35.6 °F 28.0 °F 21.2 °F 56% 30.37 in 10.0 mi NW 10.4 mph - N/A   Mostly Cloudy
12:54 PM 36.0 °F 29.0 °F 21.0 °F 55% 30.38 in 10.0 mi NW 9.2 mph - N/A   Overcast
1:54 PM 37.0 °F 29.3 °F 21.9 °F 54% 30.37 in 10.0 mi NW 11.5 mph - N/A   Overcast
2:54 PM 37.9 °F 32.1 °F 21.9 °F 53% 30.38 in 10.0 mi West 8.1 mph 18.4 mph N/A   Mostly Cloudy
3:54 PM 37.0 °F 31.6 °F 21.0 °F 52% 30.37 in 10.0 mi Variable 6.9 mph - N/A   Scattered Clouds
4:54 PM 37.0 °F 30.4 °F 21.0 °F 52% 30.37 in 10.0 mi WNW 9.2 mph - N/A   Scattered Clouds
5:54 PM 34.0 °F 27.2 °F 19.9 °F 56% 30.37 in 10.0 mi WNW 8.1 mph - N/A   Clear
6:54 PM 30.9 °F 27.5 °F 19.9 °F 64% 30.37 in 10.0 mi North 3.5 mph - N/A   Clear
7:54 PM 26.1 °F - 19.9 °F 78% 30.37 in 10.0 mi Calm Calm - N/A   Clear
8:54 PM 27.0 °F - 19.9 °F 75% 30.37 in 10.0 mi Calm Calm - N/A   Clear
9:54 PM 25.0 °F - 19.0 °F 78% 30.38 in 10.0 mi Calm Calm - N/A   Clear
10:54 PM 24.1 °F - 19.9 °F 84% 30.38 in 10.0 mi Calm Calm - N/A   Clear
11:54 PM 24.1 °F - 19.9 °F 84% 30.38 in 10.0 mi Calm Calm - N/A   Clear